Location: Newark
(30.1000°N, 109.4667°E)
Time: 18:07:51
(UTC+00:00)

Courier 1B Rocket - Pass Details

Date: 19 February 2020
Orbit: 920 x 1202 km, 28.2° (Epoch: 04 April)

Event Time Altitude Azimuth Distance (km) Brightness Sun altitude
Exits shadow 20:18:16 39° 104° (ESE) 1,547 6.3 -39.5°
Drops below altitude 10° 20:22:36 10° 98° (E) 2,947 8.2 -38.6°
Sets 20:25:27 0° 97° (E) 3,946 9.0 -38.0°
